Time,TemperatureF,DewpointF,PressureIn,WindDirection,WindDirectionDegrees,WindSpeedMPH,WindSpeedGustMPH,Humidity,HourlyPrecipIn,Conditions,Clouds,dailyrainin,SoftwareType,DateUTC
2013-11-07 00:01:00,46.8,42.8,30.09,NE,34,0.0,0.0,86,0.00,,BKN050,0.00,VWS V14.00,2013-11-07 05:01:00,
2013-11-07 00:02:00,46.8,42.8,30.09,NE,34,0.0,0.0,86,0.00,,BKN050,0.00,VWS V14.00,2013-11-07 05:02:00,
2013-11-07 00:03:00,46.8,42.8,30.09,NE,34,0.0,0.0,86,0.00,,BKN050,0.00,VWS V14.00,2013-11-07 05:03:00,
2013-11-07 00:06:00,47.0,43.0,30.09,NE,34,0.0,0.0,86,0.00,,BKN050,0.00,VWS V14.00,2013-11-07 05:06:00,
2013-11-07 00:11:00,47.2,43.2,30.09,NE,34,0.0,0.0,86,0.00,,BKN050,0.00,VWS V14.00,2013-11-07 05:11:00,
2013-11-07 00:16:00,47.0,43.3,30.06,NE,34,0.0,0.0,87,0.00,,BKN050,0.00,VWS V14.00,2013-11-07 05:16:00,
2013-11-07 00:21:00,46.4,42.5,30.06,NE,34,0.0,0.0,86,0.00,,BKN050,0.00,VWS V14.00,2013-11-07 05:21:00,
2013-11-07 00:26:00,46.4,42.5,30.06,NE,34,0.0,0.0,86,0.00,,BKN050,0.00,VWS V14.00,2013-11-07 05:26:00,
2013-11-07 00:31:00,46.2,42.3,30.06,NE,34,0.0,0.0,86,0.00,,BKN050,0.00,VWS V14.00,2013-11-07 05:31:00,
2013-11-07 00:37:00,46.2,42.6,30.06,NE,34,0.0,0.0,87,0.00,,BKN050,0.00,VWS V14.00,2013-11-07 05:37:00,
2013-11-07 00:42:00,46.6,43.0,30.06,NE,34,0.0,0.0,87,0.00,,BKN050,0.00,VWS V14.00,2013-11-07 05:42:00,
2013-11-07 00:47:00,46.6,43.0,30.06,NE,34,0.0,0.0,87,0.00,,BKN050,0.00,VWS V14.00,2013-11-07 05:47:00,
2013-11-07 00:52:00,46.8,43.1,30.06,NE,34,0.0,0.0,87,0.00,,BKN050,0.00,VWS V14.00,2013-11-07 05:52:00,
2013-11-07 00:57:00,47.0,43.3,30.06,NE,34,0.0,0.0,87,0.00,,BKN050,0.00,VWS V14.00,2013-11-07 05:57:00,
2013-11-07 01:02:00,47.2,43.2,30.06,SSE,153,0.0,0.0,86,0.00,,OVC050,0.00,VWS V14.00,2013-11-07 06:02:00,
2013-11-07 01:07:00,47.3,43.4,30.06,East,94,0.0,0.0,86,0.00,,OVC050,0.00,VWS V14.00,2013-11-07 06:07:00,
2013-11-07 01:12:00,46.8,43.1,30.06,NNW,339,0.0,0.0,87,0.00,,OVC050,0.00,VWS V14.00,2013-11-07 06:12:00,
2013-11-07 01:17:00,46.1,42.4,30.06,NW,326,0.0,0.0,87,0.00,,OVC050,0.00,VWS V14.00,2013-11-07 06:17:00,
2013-11-07 01:22:00,46.1,42.7,30.06,NW,326,0.0,0.0,88,0.00,,OVC050,0.00,VWS V14.00,2013-11-07 06:22:00,
2013-11-07 01:27:00,46.4,43.1,30.06,NW,326,0.0,0.0,88,0.00,,OVC050,0.00,VWS V14.00,2013-11-07 06:27:00,
2013-11-07 01:32:00,46.4,43.1,30.06,NW,326,0.0,0.0,88,0.00,,OVC050,0.00,VWS V14.00,2013-11-07 06:32:00,
2013-11-07 01:37:00,46.2,43.2,30.06,NW,326,0.0,0.0,89,0.00,,OVC050,0.00,VWS V14.00,2013-11-07 06:37:00,
2013-11-07 01:42:00,46.6,43.5,30.06,NW,326,0.0,0.0,89,0.00,,OVC050,0.00,VWS V14.00,2013-11-07 06:42:00,
2013-11-07 01:47:00,46.6,43.5,30.03,NW,326,0.0,0.0,89,0.00,,OVC050,0.00,VWS V14.00,2013-11-07 06:47:00,
2013-11-07 01:52:00,47.0,44.2,30.03,NW,326,0.0,0.0,90,0.00,,OVC050,0.00,VWS V14.00,2013-11-07 06:52:00,
2013-11-07 01:58:00,47.0,43.9,30.03,NW,326,0.0,0.0,89,0.00,,OVC050,0.00,VWS V14.00,2013-11-07 06:58:00,
2013-11-07 02:03:00,47.2,44.1,30.03,NW,326,0.0,0.0,89,0.00,,OVC045,0.00,VWS V14.00,2013-11-07 07:03:00,
2013-11-07 02:08:00,47.2,43.8,30.03,NW,326,0.0,0.0,88,0.00,,OVC045,0.00,VWS V14.00,2013-11-07 07:08:00,
2013-11-07 02:13:00,47.3,44.0,30.03,NW,326,0.0,0.0,88,0.00,,OVC045,0.00,VWS V14.00,2013-11-07 07:13:00,
2013-11-07 02:18:00,47.5,44.2,30.03,NW,326,0.0,0.0,88,0.00,,OVC045,0.00,VWS V14.00,2013-11-07 07:18:00,
2013-11-07 02:23:00,47.7,44.3,30.03,NW,326,0.0,0.0,88,0.00,,OVC045,0.00,VWS V14.00,2013-11-07 07:23:00,
2013-11-07 02:28:00,47.9,44.2,30.03,NW,326,0.0,0.0,87,0.00,,OVC045,0.00,VWS V14.00,2013-11-07 07:28:00,
2013-11-07 02:33:00,47.7,44.0,30.00,NW,326,0.0,0.0,87,0.00,,OVC045,0.00,VWS V14.00,2013-11-07 07:33:00,
2013-11-07 02:38:00,47.9,44.2,30.00,NW,326,0.0,0.0,87,0.00,,OVC045,0.00,VWS V14.00,2013-11-07 07:38:00,
2013-11-07 02:43:00,48.1,44.4,30.00,NW,326,0.0,0.0,87,0.00,,OVC045,0.00,VWS V14.00,2013-11-07 07:43:00,
2013-11-07 02:48:00,48.3,44.6,30.00,NW,326,0.0,0.0,87,0.00,,OVC045,0.00,VWS V14.00,2013-11-07 07:48:00,
2013-11-07 02:53:00,48.5,44.8,30.00,NW,326,0.0,0.0,87,0.00,,OVC045,0.00,VWS V14.00,2013-11-07 07:53:00,
2013-11-07 02:58:00,48.6,44.6,30.00,NW,326,0.0,0.0,86,0.00,,OVC045,0.00,VWS V14.00,2013-11-07 07:58:00,
2013-11-07 03:03:00,48.5,44.5,30.00,NW,326,0.0,0.0,86,0.00,,-RA,0.00,VWS V14.00,2013-11-07 08:03:00,
2013-11-07 03:08:00,48.5,44.5,30.00,NW,326,0.0,0.0,86,0.00,,-RA,0.00,VWS V14.00,2013-11-07 08:08:00,
2013-11-07 03:14:00,48.5,44.8,30.00,NW,326,0.0,0.0,87,0.00,,-RA,0.00,VWS V14.00,2013-11-07 08:14:00,
2013-11-07 03:19:00,48.6,44.9,30.00,NW,326,0.0,0.0,87,0.00,,-RA,0.00,VWS V14.00,2013-11-07 08:19:00,
2013-11-07 03:24:00,48.6,44.9,30.00,NW,326,0.0,0.0,87,0.00,,-RA,0.00,VWS V14.00,2013-11-07 08:24:00,
2013-11-07 03:29:00,48.8,45.4,30.00,NW,326,0.0,0.0,88,0.00,,-RA,0.00,VWS V14.00,2013-11-07 08:29:00,
2013-11-07 03:34:00,49.2,45.5,30.00,NW,326,0.0,0.0,87,0.00,,-RA,0.00,VWS V14.00,2013-11-07 08:34:00,
2013-11-07 03:39:00,49.2,45.8,30.00,WSW,258,0.0,0.0,88,0.00,,-RA,0.00,VWS V14.00,2013-11-07 08:39:00,
2013-11-07 03:44:00,49.0,45.9,30.00,WSW,258,0.0,0.0,89,0.01,,-RA,0.01,VWS V14.00,2013-11-07 08:44:00,
2013-11-07 03:49:00,49.2,46.4,30.00,WSW,258,0.0,0.0,90,0.01,,-RA,0.01,VWS V14.00,2013-11-07 08:49:00,
2013-11-07 03:54:00,49.2,46.7,30.00,WSW,258,0.0,0.0,91,0.01,,-RA,0.01,VWS V14.00,2013-11-07 08:54:00,
2013-11-07 03:59:00,48.8,47.2,29.97,WSW,258,0.0,0.0,94,0.03,,-RA,0.03,VWS V14.00,2013-11-07 08:59:00,
2013-11-07 04:04:00,48.6,47.0,29.97,WSW,258,0.0,0.0,94,0.03,,-RA,0.03,VWS V14.00,2013-11-07 09:04:00,
2013-11-07 04:09:00,48.5,47.1,29.97,WSW,258,0.0,0.0,95,0.04,,-RA,0.04,VWS V14.00,2013-11-07 09:09:00,
2013-11-07 04:14:00,48.6,47.5,29.97,WSW,258,0.0,0.0,96,0.04,,-RA,0.04,VWS V14.00,2013-11-07 09:14:00,
2013-11-07 04:19:00,48.5,47.4,29.97,WSW,258,0.0,0.0,96,0.04,,-RA,0.04,VWS V14.00,2013-11-07 09:19:00,
2013-11-07 04:24:00,47.5,46.5,29.97,NW,323,0.0,3.2,96,0.05,,-RA,0.05,VWS V14.00,2013-11-07 09:24:00,
2013-11-07 04:29:00,47.5,46.5,30.00,NW,324,0.0,0.0,96,0.06,,-RA,0.06,VWS V14.00,2013-11-07 09:29:00,
2013-11-07 04:34:00,47.5,46.5,30.00,NW,324,0.0,0.0,96,0.07,,-RA,0.07,VWS V14.00,2013-11-07 09:34:00,
2013-11-07 04:40:00,47.7,46.9,30.00,SE,125,0.0,4.3,97,0.07,,-RA,0.07,VWS V14.00,2013-11-07 09:40:00,
2013-11-07 04:45:00,48.1,47.5,30.00,SE,133,0.0,0.0,98,0.07,,-RA,0.07,VWS V14.00,2013-11-07 09:45:00,
2013-11-07 04:50:00,48.5,47.9,30.00,SE,133,0.0,0.0,98,0.06,,-RA,0.07,VWS V14.00,2013-11-07 09:50:00,
2013-11-07 04:55:00,48.5,47.9,30.00,ESE,112,3.0,3.2,98,0.06,,-RA,0.07,VWS V14.00,2013-11-07 09:55:00,
2013-11-07 05:00:00,48.6,48.1,29.97,East,90,0.0,0.0,98,0.04,,-RA,0.07,VWS V14.00,2013-11-07 10:00:00,
2013-11-07 05:05:00,48.6,48.1,29.97,SSE,154,0.0,0.0,98,0.04,,-RA,0.07,VWS V14.00,2013-11-07 10:05:00,
2013-11-07 05:10:00,49.0,48.5,29.97,SE,142,0.0,0.0,98,0.03,,-RA,0.07,VWS V14.00,2013-11-07 10:10:00,
2013-11-07 05:15:00,49.0,48.5,29.97,South,188,0.0,0.0,98,0.03,,-RA,0.07,VWS V14.00,2013-11-07 10:15:00,
2013-11-07 05:20:00,48.5,47.9,29.97,SSW,196,0.0,0.0,98,0.03,,-RA,0.07,VWS V14.00,2013-11-07 10:20:00,
2013-11-07 05:25:00,48.5,47.9,29.97,SSW,196,0.0,0.0,98,0.02,,-RA,0.07,VWS V14.00,2013-11-07 10:25:00,
2013-11-07 05:30:00,48.3,47.7,29.97,SSW,196,0.0,0.0,98,0.01,,-RA,0.07,VWS V14.00,2013-11-07 10:30:00,
2013-11-07 05:35:00,48.3,47.7,29.97,SSW,196,0.0,0.0,98,0.01,,-RA,0.07,VWS V14.00,2013-11-07 10:35:00,
2013-11-07 05:40:00,48.5,47.9,29.97,SSW,196,0.0,0.0,98,0.00,,-RA,0.07,VWS V14.00,2013-11-07 10:40:00,
2013-11-07 05:45:00,48.5,47.9,29.97,SSW,196,0.0,0.0,98,0.00,,-RA,0.07,VWS V14.00,2013-11-07 10:45:00,
2013-11-07 05:50:00,48.5,47.9,29.97,SSW,196,0.0,0.0,98,0.00,,-RA,0.07,VWS V14.00,2013-11-07 10:50:00,
2013-11-07 05:55:00,48.5,47.9,29.97,SSW,196,0.0,0.0,98,0.00,,-RA,0.07,VWS V14.00,2013-11-07 10:55:00,
2013-11-07 06:01:00,48.5,47.9,29.97,SSW,196,0.0,0.0,98,0.00,,OVC006,0.07,VWS V14.00,2013-11-07 11:01:00,
2013-11-07 06:06:00,48.5,47.9,29.97,SSW,196,0.0,0.0,98,0.00,,OVC006,0.07,VWS V14.00,2013-11-07 11:06:00,
2013-11-07 06:11:00,48.5,47.9,29.97,SSW,196,0.0,0.0,98,0.00,,OVC006,0.07,VWS V14.00,2013-11-07 11:11:00,
2013-11-07 06:16:00,48.5,47.9,29.94,SSW,196,0.0,0.0,98,0.00,,OVC006,0.07,VWS V14.00,2013-11-07 11:16:00,
2013-11-07 06:21:00,48.5,47.9,29.94,SSW,196,0.0,0.0,98,0.00,,OVC006,0.07,VWS V14.00,2013-11-07 11:21:00,
2013-11-07 06:26:00,48.6,48.1,29.94,SSW,196,0.0,0.0,98,0.00,,OVC006,0.07,VWS V14.00,2013-11-07 11:26:00,
2013-11-07 06:31:00,48.6,48.1,29.94,SSW,196,0.0,0.0,98,0.00,,OVC006,0.07,VWS V14.00,2013-11-07 11:31:00,
2013-11-07 06:34:00,48.6,48.1,29.94,SSW,196,0.0,0.0,98,0.00,,OVC006,0.07,VWS V14.00,2013-11-07 11:34:00,
2013-11-07 06:39:00,48.6,48.1,29.94,SSW,196,0.0,0.0,98,0.00,,OVC006,0.07,VWS V14.00,2013-11-07 11:39:00,
2013-11-07 06:44:00,48.8,48.3,29.94,SSW,196,0.0,0.0,98,0.00,,OVC006,0.07,VWS V14.00,2013-11-07 11:44:00,
2013-11-07 06:49:00,48.8,48.3,29.97,SSW,196,0.0,0.0,98,0.00,,OVC006,0.07,VWS V14.00,2013-11-07 11:49:00,
2013-11-07 06:54:00,48.8,48.3,29.97,SSW,196,0.0,0.0,98,0.00,,OVC006,0.07,VWS V14.00,2013-11-07 11:54:00,
2013-11-07 06:59:00,48.8,48.3,29.94,SSW,196,0.0,0.0,98,0.02,,OVC006,0.09,VWS V14.00,2013-11-07 11:59:00,
2013-11-07 07:05:00,48.8,48.3,29.94,SSW,196,0.0,0.0,98,0.02,,-RA,0.09,VWS V14.00,2013-11-07 12:05:00,
2013-11-07 07:10:00,48.8,48.3,29.94,SSW,196,0.0,0.0,98,0.02,,-RA,0.09,VWS V14.00,2013-11-07 12:10:00,
2013-11-07 07:15:00,48.8,48.3,29.97,SSW,196,0.0,0.0,98,0.02,,-RA,0.09,VWS V14.00,2013-11-07 12:15:00,
2013-11-07 07:20:00,49.0,48.5,29.97,SSW,196,0.0,0.0,98,0.03,,-RA,0.10,VWS V14.00,2013-11-07 12:20:00,
2013-11-07 07:25:00,49.0,48.5,29.97,SSW,196,0.0,0.0,98,0.03,,-RA,0.10,VWS V14.00,2013-11-07 12:25:00,
2013-11-07 07:30:00,49.0,48.5,29.97,SSW,196,0.0,0.0,98,0.03,,-RA,0.10,VWS V14.00,2013-11-07 12:30:00,
2013-11-07 07:35:00,49.0,48.5,29.97,SSW,196,0.0,0.0,98,0.03,,-RA,0.10,VWS V14.00,2013-11-07 12:35:00,
2013-11-07 07:40:00,49.0,48.5,29.97,SSW,196,0.0,0.0,98,0.03,,-RA,0.10,VWS V14.00,2013-11-07 12:40:00,
2013-11-07 07:45:00,49.2,48.7,29.97,SSW,196,0.0,0.0,98,0.03,,RA,0.10,VWS V14.00,2013-11-07 12:45:00,
2013-11-07 07:50:00,49.2,48.7,29.97,SSW,196,0.0,0.0,98,0.04,,RA,0.11,VWS V14.00,2013-11-07 12:50:00,
2013-11-07 07:55:00,49.2,48.7,29.97,SSW,196,0.0,0.0,98,0.04,,RA,0.11,VWS V14.00,2013-11-07 12:55:00,
2013-11-07 08:00:00,49.4,48.8,29.97,SSE,155,0.0,0.0,98,0.03,,-RA,0.12,VWS V14.00,2013-11-07 13:00:00,
2013-11-07 08:05:00,49.4,48.8,29.97,SSE,147,0.0,0.0,98,0.03,,-RA,0.12,VWS V14.00,2013-11-07 13:05:00,
2013-11-07 08:10:00,49.7,49.2,29.97,SE,141,0.0,0.0,98,0.04,,-RA,0.13,VWS V14.00,2013-11-07 13:10:00,
2013-11-07 08:15:00,49.7,49.2,29.94,SW,233,0.0,0.0,98,0.04,,-RA,0.13,VWS V14.00,2013-11-07 13:15:00,
2013-11-07 08:20:00,49.7,49.2,29.94,SW,233,0.0,0.0,98,0.04,,-RA,0.14,VWS V14.00,2013-11-07 13:20:00,
2013-11-07 08:26:00,49.7,49.2,29.94,SW,233,0.0,0.0,98,0.04,,-RA,0.14,VWS V14.00,2013-11-07 13:26:00,
2013-11-07 08:31:00,49.9,49.4,29.97,SW,233,0.0,0.0,98,0.04,,-RA,0.14,VWS V14.00,2013-11-07 13:31:00,
2013-11-07 08:36:00,49.9,49.4,29.97,WNW,286,0.0,0.0,98,0.04,,-RA,0.14,VWS V14.00,2013-11-07 13:36:00,
2013-11-07 08:41:00,50.1,49.6,29.97,NW,323,0.0,4.8,98,0.04,,-RA,0.14,VWS V14.00,2013-11-07 13:41:00,
2013-11-07 08:46:00,50.5,49.9,29.97,SSW,192,3.9,6.4,98,0.04,,-RA,0.14,VWS V14.00,2013-11-07 13:46:00,
2013-11-07 08:51:00,50.7,50.1,29.97,NW,310,9.1,9.9,98,0.03,,-RA,0.14,VWS V14.00,2013-11-07 13:51:00,
2013-11-07 08:56:00,50.7,50.1,29.97,SSE,163,0.0,0.0,98,0.03,,-RA,0.14,VWS V14.00,2013-11-07 13:56:00,
2013-11-07 09:01:00,50.7,50.1,29.97,NNW,337,0.0,4.3,98,0.02,,-RA,0.14,VWS V14.00,2013-11-07 14:01:00,
2013-11-07 09:06:00,50.5,49.9,29.97,West,267,3.0,3.8,98,0.02,,-RA,0.14,VWS V14.00,2013-11-07 14:06:00,
2013-11-07 09:11:00,50.1,49.6,29.97,WNW,286,5.4,5.9,98,0.01,,-RA,0.14,VWS V14.00,2013-11-07 14:11:00,
2013-11-07 09:16:00,49.9,49.4,30.00,West,280,3.9,6.4,98,0.01,,-RA,0.14,VWS V14.00,2013-11-07 14:16:00,
2013-11-07 09:21:00,49.9,49.1,30.00,NW,314,2.5,7.5,97,0.00,,-RA,0.14,VWS V14.00,2013-11-07 14:21:00,
2013-11-07 09:26:00,49.9,48.3,30.00,SW,234,4.4,4.8,94,0.00,,-RA,0.14,VWS V14.00,2013-11-07 14:26:00,
2013-11-07 09:31:00,49.9,47.4,30.00,ENE,57,0.0,2.7,91,0.00,,-RA,0.14,VWS V14.00,2013-11-07 14:31:00,
2013-11-07 09:37:00,49.9,46.2,30.00,WNW,290,3.0,3.2,87,0.00,,-RA,0.14,VWS V14.00,2013-11-07 14:37:00,
2013-11-07 09:42:00,49.7,45.7,30.00,NW,321,9.1,9.9,86,0.00,,-RA,0.14,VWS V14.00,2013-11-07 14:42:00,
2013-11-07 09:47:00,49.5,44.9,30.00,West,264,5.9,7.0,84,0.00,,-RA,0.14,VWS V14.00,2013-11-07 14:47:00,
2013-11-07 09:52:00,49.5,44.3,30.00,NW,323,9.6,10.5,82,0.00,,-RA,0.14,VWS V14.00,2013-11-07 14:52:00,
2013-11-07 09:57:00,49.4,43.5,30.00,WNW,303,10.6,11.5,80,0.00,,-RA,0.14,VWS V14.00,2013-11-07 14:57:00,
2013-11-07 10:02:00,49.4,43.8,30.00,WSW,242,6.4,7.5,81,0.00,,-RA,0.14,VWS V14.00,2013-11-07 15:02:00,
2013-11-07 10:07:00,49.4,43.5,30.00,West,263,8.4,10.5,80,0.00,,-RA,0.14,VWS V14.00,2013-11-07 15:07:00,
2013-11-07 10:12:00,49.4,43.1,30.00,West,264,9.6,10.5,79,0.00,,-RA,0.14,VWS V14.00,2013-11-07 15:12:00,
2013-11-07 10:17:00,49.2,42.0,30.00,NNW,327,11.1,20.9,76,0.00,,-RA,0.14,VWS V14.00,2013-11-07 15:17:00,
2013-11-07 10:22:00,48.6,41.1,30.00,NNW,339,13.5,15.3,75,0.00,,-RA,0.14,VWS V14.00,2013-11-07 15:22:00,
2013-11-07 10:27:00,48.6,40.7,30.00,WNW,293,14.5,23.6,74,0.00,,-RA,0.14,VWS V14.00,2013-11-07 15:27:00,
2013-11-07 10:32:00,48.5,39.8,30.03,NW,310,21.7,23.6,72,0.00,,-RA,0.14,VWS V14.00,2013-11-07 15:32:00,
2013-11-07 10:37:00,48.1,38.8,30.03,NNW,341,17.0,19.1,70,0.00,,-RA,0.14,VWS V14.00,2013-11-07 15:37:00,
2013-11-07 10:42:00,47.9,39.0,30.03,NW,321,12.1,15.3,71,0.00,,-RA,0.14,VWS V14.00,2013-11-07 15:42:00,
2013-11-07 10:47:00,47.9,39.3,30.03,NW,312,11.6,15.3,72,0.00,,-RA,0.14,VWS V14.00,2013-11-07 15:47:00,
2013-11-07 10:52:00,47.3,37.3,30.03,NW,320,14.5,18.5,68,0.00,,-RA,0.14,VWS V14.00,2013-11-07 15:52:00,
2013-11-07 10:58:00,47.5,37.9,30.03,NNW,332,16.5,18.5,69,0.00,,-RA,0.14,VWS V14.00,2013-11-07 15:58:00,
2013-11-07 11:03:00,47.2,37.9,30.03,NNW,327,11.6,19.1,70,0.00,,OVC030,0.14,VWS V14.00,2013-11-07 16:03:00,
2013-11-07 11:08:00,47.0,38.1,30.03,NNW,335,9.6,14.8,71,0.00,,OVC030,0.14,VWS V14.00,2013-11-07 16:08:00,
2013-11-07 11:13:00,47.0,38.4,30.03,West,271,9.6,14.8,72,0.00,,OVC030,0.14,VWS V14.00,2013-11-07 16:13:00,
2013-11-07 11:18:00,47.0,38.4,30.03,NW,305,11.1,14.2,72,0.00,,OVC021,0.14,VWS V14.00,2013-11-07 16:18:00,
2013-11-07 11:23:00,46.8,38.6,30.03,WNW,284,8.4,9.9,73,0.00,,OVC021,0.14,VWS V14.00,2013-11-07 16:23:00,
2013-11-07 11:28:00,46.4,38.3,30.03,WNW,284,6.9,9.9,73,0.00,,OVC021,0.14,VWS V14.00,2013-11-07 16:28:00,
2013-11-07 11:33:00,46.4,39.0,30.03,NW,323,4.4,7.5,75,0.00,,OVC024,0.14,VWS V14.00,2013-11-07 16:33:00,
2013-11-07 11:38:00,46.4,39.0,30.03,NW,323,6.4,8.1,75,0.00,,OVC024,0.14,VWS V14.00,2013-11-07 16:38:00,
2013-11-07 11:43:00,46.4,39.0,30.03,NW,311,9.6,10.5,75,0.00,,OVC024,0.14,VWS V14.00,2013-11-07 16:43:00,
2013-11-07 11:48:00,46.8,39.0,30.03,NW,309,10.6,12.6,74,0.00,,OVC024,0.14,VWS V14.00,2013-11-07 16:48:00,
2013-11-07 11:53:00,46.4,37.9,30.03,NW,322,12.1,13.2,72,0.00,,OVC024,0.14,VWS V14.00,2013-11-07 16:53:00,
2013-11-07 11:58:00,46.2,37.0,30.03,NNW,338,6.4,9.1,70,0.00,,OVC024,0.14,VWS V14.00,2013-11-07 16:58:00,
2013-11-07 12:03:00,46.2,37.4,30.03,WNW,292,5.9,9.7,71,0.00,,-RA,0.14,VWS V14.00,2013-11-07 17:03:00,
2013-11-07 12:09:00,46.4,37.5,30.03,WNW,294,9.6,10.5,71,0.00,,-RA,0.14,VWS V14.00,2013-11-07 17:09:00,
2013-11-07 12:14:00,46.4,37.2,30.03,NNW,340,11.1,15.3,70,0.00,,-RA,0.14,VWS V14.00,2013-11-07 17:14:00,
2013-11-07 12:19:00,46.2,36.3,30.03,WNW,284,5.9,10.5,68,0.00,,-RA,0.14,VWS V14.00,2013-11-07 17:19:00,
2013-11-07 12:24:00,46.2,36.3,30.03,NNW,344,13.5,14.8,68,0.00,,-RA,0.14,VWS V14.00,2013-11-07 17:24:00,
2013-11-07 12:29:00,47.2,37.5,30.03,NNW,331,14.0,15.3,69,0.00,,-RA,0.14,VWS V14.00,2013-11-07 17:29:00,
2013-11-07 12:34:00,47.7,38.1,30.03,NW,313,6.9,13.2,69,0.00,,OVC027,0.14,VWS V14.00,2013-11-07 17:34:00,
2013-11-07 12:39:00,48.8,38.7,30.03,NNW,343,6.4,9.9,68,0.00,,OVC027,0.14,VWS V14.00,2013-11-07 17:39:00,
2013-11-07 12:44:00,48.3,37.5,30.03,NW,314,8.4,9.7,66,0.00,,OVC027,0.14,VWS V14.00,2013-11-07 17:44:00,
2013-11-07 12:49:00,47.9,36.7,30.03,WNW,295,6.4,7.5,65,0.00,,OVC027,0.14,VWS V14.00,2013-11-07 17:49:00,
2013-11-07 12:54:00,48.1,36.9,30.03,NW,317,4.4,7.5,65,0.00,,OVC027,0.14,VWS V14.00,2013-11-07 17:54:00,
2013-11-07 12:58:00,47.7,34.1,30.03,NNW,327,14.0,15.3,59,0.00,,OVC027,0.14,VWS V14.00,2013-11-07 17:58:00,
2013-11-07 13:03:00,47.2,32.7,30.03,West,271,4.4,13.2,57,0.00,,OVC021,0.14,VWS V14.00,2013-11-07 18:03:00,
2013-11-07 13:08:00,47.0,32.5,30.03,WNW,287,13.5,19.1,57,0.00,,OVC021,0.14,VWS V14.00,2013-11-07 18:08:00,
2013-11-07 13:13:00,46.4,32.0,30.03,WNW,291,14.0,15.3,57,0.00,,OVC021,0.14,VWS V14.00,2013-11-07 18:13:00,
2013-11-07 13:18:00,46.6,32.6,30.03,NW,321,5.9,9.9,58,0.00,,OVC021,0.14,VWS V14.00,2013-11-07 18:18:00,
2013-11-07 13:24:00,47.0,33.4,30.03,NNW,328,14.0,15.3,59,0.00,,OVC021,0.14,VWS V14.00,2013-11-07 18:24:00,
2013-11-07 13:29:00,47.7,34.1,30.03,SW,235,6.4,9.7,59,0.00,,OVC021,0.14,VWS V14.00,2013-11-07 18:29:00,
2013-11-07 13:34:00,47.3,32.9,30.03,West,281,6.9,7.5,57,0.00,,OVC021,0.14,VWS V14.00,2013-11-07 18:34:00,
2013-11-07 13:39:00,47.3,33.3,30.03,SW,219,5.4,9.9,58,0.00,,OVC021,0.14,VWS V14.00,2013-11-07 18:39:00,
2013-11-07 13:44:00,47.3,33.8,30.03,NW,326,8.4,13.2,59,0.00,,OVC021,0.14,VWS V14.00,2013-11-07 18:44:00,
2013-11-07 13:49:00,47.0,33.4,30.03,South,189,5.9,9.1,59,0.00,,OVC021,0.14,VWS V14.00,2013-11-07 18:49:00,
2013-11-07 13:54:00,46.4,31.6,30.03,WNW,294,6.4,9.9,56,0.00,,OVC021,0.14,VWS V14.00,2013-11-07 18:54:00,
2013-11-07 13:59:00,46.4,31.6,30.03,NNW,332,14.0,15.3,56,0.00,,OVC021,0.14,VWS V14.00,2013-11-07 18:59:00,
2013-11-07 14:04:00,46.2,31.9,30.03,NW,305,8.4,14.8,57,0.00,,OVC028,0.14,VWS V14.00,2013-11-07 19:04:00,
2013-11-07 14:09:00,45.3,30.1,30.03,WSW,255,14.0,15.3,55,0.00,,OVC028,0.14,VWS V14.00,2013-11-07 19:09:00,
2013-11-07 14:14:00,44.8,30.0,30.06,NNW,341,11.6,20.1,56,0.00,,OVC028,0.14,VWS V14.00,2013-11-07 19:14:00,
2013-11-07 14:19:00,44.4,29.7,30.06,WNW,290,8.4,12.6,56,0.00,,OVC028,0.14,VWS V14.00,2013-11-07 19:19:00,
2013-11-07 14:24:00,43.9,29.6,30.06,WNW,287,6.9,13.2,57,0.00,,OVC028,0.14,VWS V14.00,2013-11-07 19:24:00,
2013-11-07 14:29:00,43.3,29.1,30.06,WSW,248,9.6,15.8,57,0.00,,OVC028,0.14,VWS V14.00,2013-11-07 19:29:00,
2013-11-07 14:35:00,42.8,28.6,30.06,NW,319,6.4,9.9,57,0.00,,OVC028,0.14,VWS V14.00,2013-11-07 19:35:00,
2013-11-07 14:40:00,42.9,29.2,30.06,WNW,300,4.4,7.5,58,0.00,,OVC028,0.14,VWS V14.00,2013-11-07 19:40:00,
2013-11-07 14:45:00,42.9,30.0,30.06,NNW,341,11.1,13.2,60,0.00,,OVC028,0.14,VWS V14.00,2013-11-07 19:45:00,
2013-11-07 14:50:00,42.8,29.4,30.06,NW,311,0.0,3.2,59,0.00,,OVC028,0.14,VWS V14.00,2013-11-07 19:50:00,
2013-11-07 14:55:00,43.1,30.2,30.06,NNW,337,3.0,3.2,60,0.00,,OVC028,0.14,VWS V14.00,2013-11-07 19:55:00,
2013-11-07 15:00:00,42.8,29.4,30.03,WNW,285,2.5,3.2,59,0.00,,OVC028,0.14,VWS V14.00,2013-11-07 20:00:00,
2013-11-07 15:05:00,42.9,29.2,30.03,West,281,6.9,7.5,58,0.00,,OVC031,0.14,VWS V14.00,2013-11-07 20:05:00,
2013-11-07 15:10:00,42.9,29.2,30.03,NNW,341,5.9,7.5,58,0.00,,OVC031,0.14,VWS V14.00,2013-11-07 20:10:00,
2013-11-07 15:15:00,42.8,28.6,30.03,WSW,248,5.9,6.4,57,0.00,,OVC031,0.14,VWS V14.00,2013-11-07 20:15:00,
2013-11-07 15:20:00,42.6,28.0,30.03,WNW,285,3.9,8.6,56,0.00,,OVC031,0.14,VWS V14.00,2013-11-07 20:20:00,
2013-11-07 15:25:00,42.6,28.4,30.03,West,272,3.4,6.4,57,0.00,,OVC031,0.14,VWS V14.00,2013-11-07 20:25:00,
2013-11-07 15:30:00,42.4,27.4,30.06,NW,324,8.4,9.7,55,0.00,,OVC031,0.14,VWS V14.00,2013-11-07 20:30:00,
2013-11-07 15:35:00,42.2,27.2,30.06,West,267,6.9,12.6,55,0.00,,OVC031,0.14,VWS V14.00,2013-11-07 20:35:00,
2013-11-07 15:40:00,41.7,26.7,30.06,West,260,6.4,9.1,55,0.00,,OVC031,0.14,VWS V14.00,2013-11-07 20:40:00,
2013-11-07 15:45:00,41.7,25.8,30.06,NW,316,8.9,9.9,53,0.00,,OVC031,0.14,VWS V14.00,2013-11-07 20:45:00,
2013-11-07 15:51:00,41.5,26.1,30.06,NW,320,8.4,12.1,54,0.00,,OVC031,0.14,VWS V14.00,2013-11-07 20:51:00,
2013-11-07 15:56:00,42.0,26.6,30.06,NW,310,8.4,15.3,54,0.00,,OVC031,0.14,VWS V14.00,2013-11-07 20:56:00,
2013-11-07 16:01:00,41.8,26.9,30.06,West,259,3.0,6.4,55,0.00,,OVC036,0.14,VWS V14.00,2013-11-07 21:01:00,
2013-11-07 16:06:00,41.8,27.3,30.06,NW,307,3.4,6.4,56,0.00,,OVC036,0.14,VWS V14.00,2013-11-07 21:06:00,
2013-11-07 16:11:00,42.2,28.1,30.06,WSW,258,5.4,7.0,57,0.00,,OVC036,0.14,VWS V14.00,2013-11-07 21:11:00,
2013-11-07 16:16:00,41.7,27.1,30.06,NW,311,3.9,4.8,56,0.00,,OVC036,0.14,VWS V14.00,2013-11-07 21:16:00,
2013-11-07 16:21:00,41.7,26.7,30.06,WNW,286,5.4,7.0,55,0.00,,OVC036,0.14,VWS V14.00,2013-11-07 21:21:00,
2013-11-07 16:26:00,41.3,25.9,30.06,NW,315,8.9,9.9,54,0.00,,OVC036,0.14,VWS V14.00,2013-11-07 21:26:00,
2013-11-07 16:31:00,41.3,26.4,30.06,WNW,300,5.9,9.9,55,0.00,,OVC036,0.14,VWS V14.00,2013-11-07 21:31:00,
2013-11-07 16:36:00,41.1,26.2,30.06,WSW,238,5.9,7.0,55,0.00,,OVC036,0.14,VWS V14.00,2013-11-07 21:36:00,
2013-11-07 16:41:00,40.9,25.6,30.06,West,267,5.9,6.4,54,0.00,,OVC036,0.14,VWS V14.00,2013-11-07 21:41:00,
2013-11-07 16:46:00,40.9,25.6,30.06,WNW,282,9.1,9.9,54,0.00,,OVC036,0.14,VWS V14.00,2013-11-07 21:46:00,
2013-11-07 16:51:00,40.5,24.8,30.06,NNW,338,0.0,7.0,53,0.00,,OVC036,0.14,VWS V14.00,2013-11-07 21:51:00,
2013-11-07 16:56:00,40.4,25.1,30.06,WNW,286,3.9,5.9,54,0.00,,OVC036,0.14,VWS V14.00,2013-11-07 21:56:00,
2013-11-07 17:01:00,40.0,24.7,30.06,SSW,213,3.9,9.7,54,0.00,,OVC037,0.14,VWS V14.00,2013-11-07 22:01:00,
2013-11-07 17:07:00,40.0,24.7,30.06,SSW,202,2.5,5.4,54,0.00,,OVC037,0.14,VWS V14.00,2013-11-07 22:07:00,
2013-11-07 17:12:00,39.6,24.8,30.06,West,264,3.9,5.9,55,0.00,,OVC037,0.14,VWS V14.00,2013-11-07 22:12:00,
2013-11-07 17:17:00,39.6,24.4,30.06,NW,313,9.6,10.5,54,0.00,,OVC040,0.14,VWS V14.00,2013-11-07 22:17:00,
2013-11-07 17:22:00,39.5,24.6,30.06,NW,308,6.9,10.5,55,0.00,,OVC040,0.14,VWS V14.00,2013-11-07 22:22:00,
2013-11-07 17:27:00,39.5,25.1,30.06,SW,232,2.5,2.7,56,0.00,,OVC040,0.14,VWS V14.00,2013-11-07 22:27:00,
2013-11-07 17:32:00,39.5,25.1,30.06,NNW,335,5.9,6.4,56,0.00,,OVC040,0.14,VWS V14.00,2013-11-07 22:32:00,
2013-11-07 17:37:00,39.5,25.5,30.06,WNW,297,3.4,5.9,57,0.00,,OVC040,0.14,VWS V14.00,2013-11-07 22:37:00,
2013-11-07 17:42:00,39.3,24.9,30.06,WNW,301,6.9,11.5,56,0.00,,OVC040,0.14,VWS V14.00,2013-11-07 22:42:00,
2013-11-07 17:47:00,39.3,25.3,30.09,West,266,6.9,9.7,57,0.00,,OVC040,0.14,VWS V14.00,2013-11-07 22:47:00,
2013-11-07 17:52:00,39.3,24.9,30.09,WSW,256,6.4,12.1,56,0.00,,OVC040,0.14,VWS V14.00,2013-11-07 22:52:00,
2013-11-07 17:57:00,39.1,24.7,30.09,NNW,341,11.6,12.6,56,0.00,,OVC040,0.14,VWS V14.00,2013-11-07 22:57:00,
2013-11-07 18:02:00,39.1,24.7,30.09,WNW,293,9.1,9.9,56,0.00,,OVC042,0.14,VWS V14.00,2013-11-07 23:02:00,
2013-11-07 18:07:00,38.9,24.6,30.09,WNW,293,8.4,9.1,56,0.00,,OVC042,0.14,VWS V14.00,2013-11-07 23:07:00,
2013-11-07 18:12:00,38.7,24.4,30.09,WNW,286,5.9,7.0,56,0.00,,OVC042,0.14,VWS V14.00,2013-11-07 23:12:00,
2013-11-07 18:17:00,38.7,24.4,30.09,WNW,294,6.4,7.5,56,0.00,,OVC042,0.14,VWS V14.00,2013-11-07 23:17:00,
2013-11-07 18:23:00,38.5,24.6,30.09,WNW,298,6.4,7.0,57,0.00,,OVC042,0.14,VWS V14.00,2013-11-07 23:23:00,
2013-11-07 18:28:00,38.5,24.2,30.09,NW,307,8.9,9.7,56,0.00,,OVC042,0.14,VWS V14.00,2013-11-07 23:28:00,
2013-11-07 18:33:00,38.5,24.2,30.09,West,272,4.4,6.4,56,0.00,,OVC042,0.14,VWS V14.00,2013-11-07 23:33:00,
2013-11-07 18:38:00,38.5,24.2,30.09,NW,305,5.4,5.9,56,0.00,,OVC042,0.14,VWS V14.00,2013-11-07 23:38:00,
2013-11-07 18:43:00,38.5,24.2,30.09,West,274,3.0,5.9,56,0.00,,OVC042,0.14,VWS V14.00,2013-11-07 23:43:00,
2013-11-07 18:48:00,38.5,24.2,30.09,NW,321,3.9,6.4,56,0.00,,OVC042,0.14,VWS V14.00,2013-11-07 23:48:00,
2013-11-07 18:53:00,38.5,24.2,30.09,NW,304,9.1,9.9,56,0.00,,OVC042,0.14,VWS V14.00,2013-11-07 23:53:00,
2013-11-07 18:58:00,38.5,24.2,30.09,NW,313,8.9,9.7,56,0.00,,OVC042,0.14,VWS V14.00,2013-11-07 23:58:00,
2013-11-07 19:03:00,38.5,24.2,30.09,WNW,290,14.0,15.3,56,0.00,,BKN038,0.14,VWS V14.00,2013-11-08 00:03:00,
2013-11-07 19:08:00,38.5,24.2,30.09,WNW,302,8.4,10.5,56,0.00,,BKN038,0.14,VWS V14.00,2013-11-08 00:08:00,
2013-11-07 19:13:00,38.5,24.6,30.09,NNW,331,7.4,8.1,57,0.00,,BKN038,0.14,VWS V14.00,2013-11-08 00:13:00,
2013-11-07 19:18:00,38.5,24.2,30.09,West,276,3.4,7.0,56,0.00,,BKN038,0.14,VWS V14.00,2013-11-08 00:18:00,
2013-11-07 19:23:00,38.7,23.5,30.09,West,268,6.9,14.8,54,0.00,,BKN038,0.14,VWS V14.00,2013-11-08 00:23:00,
2013-11-07 19:28:00,38.5,23.4,30.09,WNW,294,13.0,14.2,54,0.00,,BKN038,0.14,VWS V14.00,2013-11-08 00:28:00,
2013-11-07 19:33:00,38.5,23.4,30.09,NW,317,9.6,15.3,54,0.00,,BKN038,0.14,VWS V14.00,2013-11-08 00:33:00,
2013-11-07 19:38:00,38.5,23.4,30.09,NNW,344,14.5,15.8,54,0.00,,BKN038,0.14,VWS V14.00,2013-11-08 00:38:00,
2013-11-07 19:44:00,38.5,23.4,30.09,NW,316,6.4,9.1,54,0.00,,BKN038,0.14,VWS V14.00,2013-11-08 00:44:00,
2013-11-07 19:49:00,38.5,23.4,30.09,NW,311,6.9,13.2,54,0.00,,BKN038,0.14,VWS V14.00,2013-11-08 00:49:00,
2013-11-07 19:54:00,38.3,23.6,30.09,NW,313,9.1,12.6,55,0.00,,BKN038,0.14,VWS V14.00,2013-11-08 00:54:00,
2013-11-07 19:59:00,38.2,23.4,30.09,NW,325,6.9,9.7,55,0.00,,BKN038,0.14,VWS V14.00,2013-11-08 00:59:00,
2013-11-07 20:04:00,38.2,23.0,30.09,NW,321,10.1,11.0,54,0.00,,FEW034,0.14,VWS V14.00,2013-11-08 01:04:00,
2013-11-07 20:09:00,38.0,22.4,30.09,NW,326,9.1,15.8,53,0.00,,FEW034,0.14,VWS V14.00,2013-11-08 01:09:00,
2013-11-07 20:14:00,37.8,22.2,30.09,NW,326,13.5,15.3,53,0.00,,FEW034,0.14,VWS V14.00,2013-11-08 01:14:00,
2013-11-07 20:19:00,37.4,21.4,30.09,WNW,303,9.1,12.6,52,0.00,,FEW034,0.14,VWS V14.00,2013-11-08 01:19:00,
2013-11-07 20:24:00,37.4,21.4,30.09,NW,315,3.4,9.7,52,0.00,,FEW034,0.14,VWS V14.00,2013-11-08 01:24:00,
2013-11-07 20:29:00,37.2,21.3,30.09,NNW,330,6.9,10.5,52,0.00,,FEW034,0.14,VWS V14.00,2013-11-08 01:29:00,
2013-11-07 20:34:00,37.1,21.1,30.12,NW,310,9.1,14.8,52,0.00,,FEW034,0.14,VWS V14.00,2013-11-08 01:34:00,
2013-11-07 20:39:00,36.9,20.9,30.12,NNW,327,6.9,9.7,52,0.00,,FEW034,0.14,VWS V14.00,2013-11-08 01:39:00,
2013-11-07 20:44:00,36.7,20.8,30.12,NW,311,5.9,6.4,52,0.00,,FEW034,0.14,VWS V14.00,2013-11-08 01:44:00,
2013-11-07 20:49:00,36.5,20.6,30.12,NNW,338,6.4,12.1,52,0.00,,FEW034,0.14,VWS V14.00,2013-11-08 01:49:00,
2013-11-07 20:54:00,36.2,20.7,30.12,West,276,8.4,9.7,53,0.00,,FEW034,0.14,VWS V14.00,2013-11-08 01:54:00,
2013-11-07 20:59:00,36.2,20.2,30.12,NNW,334,4.4,9.7,52,0.00,,FEW034,0.14,VWS V14.00,2013-11-08 01:59:00,
2013-11-07 21:05:00,36.0,20.5,30.12,NW,305,5.9,10.5,53,0.00,,OVC040,0.14,VWS V14.00,2013-11-08 02:05:00,
2013-11-07 21:10:00,36.0,20.1,30.12,WNW,301,6.4,9.9,52,0.00,,OVC040,0.14,VWS V14.00,2013-11-08 02:10:00,
2013-11-07 21:15:00,35.8,20.3,30.12,NW,312,6.4,9.7,53,0.00,,OVC040,0.14,VWS V14.00,2013-11-08 02:15:00,
2013-11-07 21:20:00,35.6,20.2,30.12,NW,307,6.9,7.5,53,0.00,,OVC040,0.14,VWS V14.00,2013-11-08 02:20:00,
2013-11-07 21:25:00,35.6,20.2,30.12,NNW,341,14.0,15.3,53,0.00,,OVC040,0.14,VWS V14.00,2013-11-08 02:25:00,
2013-11-07 21:30:00,35.4,20.0,30.12,WNW,289,8.4,9.9,53,0.00,,OVC040,0.14,VWS V14.00,2013-11-08 02:30:00,
2013-11-07 21:35:00,35.4,20.0,30.12,WNW,301,11.6,12.6,53,0.00,,OVC040,0.14,VWS V14.00,2013-11-08 02:35:00,
2013-11-07 21:40:00,35.4,19.5,30.12,North,353,8.9,10.5,52,0.00,,OVC040,0.14,VWS V14.00,2013-11-08 02:40:00,
2013-11-07 21:45:00,35.2,19.4,30.12,West,262,8.9,14.8,52,0.00,,OVC040,0.14,VWS V14.00,2013-11-08 02:45:00,
2013-11-07 21:50:00,35.2,19.8,30.12,NNW,330,8.9,9.7,53,0.00,,OVC040,0.14,VWS V14.00,2013-11-08 02:50:00,
2013-11-07 21:55:00,35.2,19.4,30.12,NW,315,14.0,15.3,52,0.00,,OVC040,0.14,VWS V14.00,2013-11-08 02:55:00,
2013-11-07 22:00:00,35.0,19.7,30.12,North,350,8.9,9.9,53,0.00,,OVC040,0.14,VWS V14.00,2013-11-08 03:00:00,
2013-11-07 22:05:00,35.0,19.2,30.12,NNW,331,6.9,12.1,52,0.00,,OVC040,0.14,VWS V14.00,2013-11-08 03:05:00,
2013-11-07 22:10:00,35.0,19.2,30.12,NW,312,9.1,9.9,52,0.00,,OVC040,0.14,VWS V14.00,2013-11-08 03:10:00,
2013-11-07 22:16:00,34.9,19.0,30.12,NW,324,9.1,13.2,52,0.00,,OVC040,0.14,VWS V14.00,2013-11-08 03:16:00,
2013-11-07 22:21:00,35.0,19.2,30.12,NW,325,11.6,15.3,52,0.00,,OVC040,0.14,VWS V14.00,2013-11-08 03:21:00,
2013-11-07 22:26:00,34.9,19.5,30.12,North,3,13.5,14.8,53,0.00,,OVC040,0.14,VWS V14.00,2013-11-08 03:26:00,
2013-11-07 22:31:00,34.7,19.3,30.12,NW,308,14.0,15.8,53,0.00,,OVC040,0.14,VWS V14.00,2013-11-08 03:31:00,
2013-11-07 22:36:00,34.7,19.3,30.12,NW,310,8.9,10.5,53,0.00,,OVC040,0.14,VWS V14.00,2013-11-08 03:36:00,
2013-11-07 22:41:00,34.7,19.3,30.12,NNW,331,8.9,14.8,53,0.00,,OVC040,0.14,VWS V14.00,2013-11-08 03:41:00,
2013-11-07 22:46:00,34.5,19.1,30.12,NNW,339,8.4,9.1,53,0.00,,OVC040,0.14,VWS V14.00,2013-11-08 03:46:00,
2013-11-07 22:51:00,34.3,19.4,30.12,NNW,340,11.6,12.6,54,0.00,,OVC040,0.14,VWS V14.00,2013-11-08 03:51:00,
2013-11-07 22:56:00,34.5,19.1,30.12,NNW,335,9.1,12.1,53,0.00,,OVC040,0.14,VWS V14.00,2013-11-08 03:56:00,
2013-11-07 23:01:00,34.3,19.4,30.12,NW,310,7.9,12.6,54,0.00,,CLR,0.14,VWS V14.00,2013-11-08 04:01:00,
2013-11-07 23:06:00,34.3,19.4,30.12,NW,323,9.6,14.8,54,0.00,,CLR,0.14,VWS V14.00,2013-11-08 04:06:00,
2013-11-07 23:11:00,34.3,19.4,30.12,North,349,5.9,6.4,54,0.00,,CLR,0.14,VWS V14.00,2013-11-08 04:11:00,
2013-11-07 23:16:00,34.1,19.7,30.12,NNW,327,8.4,9.1,55,0.00,,CLR,0.14,VWS V14.00,2013-11-08 04:16:00,
2013-11-07 23:21:00,34.1,19.7,30.12,NW,320,6.9,7.5,55,0.00,,CLR,0.14,VWS V14.00,2013-11-08 04:21:00,
2013-11-07 23:26:00,34.1,19.2,30.12,NNW,341,9.1,12.6,54,0.00,,CLR,0.14,VWS V14.00,2013-11-08 04:26:00,
2013-11-07 23:31:00,33.8,18.9,30.12,NW,311,5.9,7.0,54,0.00,,CLR,0.14,VWS V14.00,2013-11-08 04:31:00,
2013-11-07 23:36:00,33.9,19.1,30.12,West,279,5.4,13.2,54,0.00,,CLR,0.14,VWS V14.00,2013-11-08 04:36:00,
2013-11-07 23:42:00,33.8,18.9,30.12,NW,316,6.4,9.1,54,0.00,,CLR,0.14,VWS V14.00,2013-11-08 04:42:00,
2013-11-07 23:47:00,33.6,19.1,30.12,NW,307,8.4,9.7,55,0.00,,CLR,0.14,VWS V14.00,2013-11-08 04:47:00,
2013-11-07 23:52:00,33.8,18.9,30.12,NW,325,9.6,12.6,54,0.00,,CLR,0.14,VWS V14.00,2013-11-08 04:52:00,
2013-11-07 23:57:00,33.8,18.9,30.12,NNW,342,8.4,15.8,54,0.00,,CLR,0.14,VWS V14.00,2013-11-08 04:57:00,